Location: Kershaw
(34.5481°N, 80.5823°W)
Time: 02:58:36
(UTC+00:00)

Altair - Pass Details

Date: 06 October 2022
Orbit: 1501 x 1682 km, 47.2° (Epoch: 01 December)

Event Time Altitude Azimuth Distance (km) Brightness Sun altitude
Rises 15:25:05 0° 305° (NW) 4,896 9.7 43.1°
Reaches altitude 10° 15:28:14 10° 306° (NW) 3,922 9.3 43.5°
Maximum altitude 15:38:24 86° 36° (NE) 1,688 8.5 44.6°
Drops below altitude 10° 15:48:35 10° 126° (SE) 3,922 10.5 45.7°
Sets 15:51:42 0° 126° (SE) 4,896 10.8 46.1°
